North Island, CA

1:25 PM PDT on May 24, 2017 (GMT -0700)
North Island Naval Air Station

Weather History for KNZY - March, 2014

Change the Weather History Date:

Monday, March 17, 2014

  Actual Average Record
Temperature  
Mean Temperature 66 °F -  
Max Temperature 75 °F 62 °F 75 °F (2009)
Min Temperature 59 °F 51 °F 42 °F (2003)
Cooling Degree Days 1    
Growing Degree Days 16 (Base 50)    
Moisture  
Dew Point 54 °F    
Average Humidity 64    
Maximum Humidity 72    
Minimum Humidity 55    
Precipitation  
Precipitation 0.00 in - - ()
Sea Level Pressure  
Sea Level Pressure 29.93 in    
Wind  
Wind Speed 4 mph (WSW)    
Max Wind Speed 14 mph    
Max Gust Speed -    
Visibility 9 miles    
Events      
Averages and records for this station are not official NWS values.
T = Trace of Precipitation, MM = Missing Value Source: NWS Daily Summary

Daily Weather History Graph

Daily Weather History Graph

Search for Another Location

Airport or City:

Trip Planner

Search our weather history database for the weather conditions in past years. The results will help you decide how hot, cold, wet, or windy it might be!

Date:

Astronomy

Mar. 17, 2014 Rise Set
Actual Time 6:56 AM PDT 6:58 PM PDT
Civil Twilight 6:31 AM PDT 7:22 PM PDT
Nautical Twilight 6:03 AM PDT 7:51 PM PDT
Astronomical Twilight 5:34 AM PDT 8:20 PM PDT
Moon 8:13 PM PDT (3/17) 7:18 AM PDT (3/17)
Length of Visible Light 12h 51m
Length of Day
12h 01m
Full, 99% of the Moon is Illuminated
Mar 17
Full
Mar 23
Last Quarter
Mar 30
New
Apr 7
First Quarter
Apr 15
Full

Hourly Weather History & Observations

Time (PDT) Temp. Dew Point Humidity Pressure Visibility Wind Dir Wind Speed Gust Speed Precip Events Conditions
12:52 AM 68.0 °F 51.1 °F 55% 30.08 in 9.0 mi NNW 3.5 mph - N/A   Partly Cloudy
1:52 AM 64.0 °F 50.0 °F 60% 30.05 in 10.0 mi Calm Calm - N/A   Partly Cloudy
2:52 AM 63.0 °F 52.0 °F 67% 30.03 in 9.0 mi Calm Calm - N/A   Partly Cloudy
3:52 AM 62.1 °F 52.0 °F 70% 30.00 in 9.0 mi Calm Calm - N/A   Partly Cloudy
4:42 AM 63.0 °F 53.1 °F 70% 30.00 in 8.0 mi NE 3.5 mph - N/A   Partly Cloudy
4:52 AM 63.0 °F 53.1 °F 70% 30.00 in 8.0 mi NNW 4.6 mph - N/A   Partly Cloudy
5:52 AM 60.1 °F 51.1 °F 72% 29.99 in 8.0 mi Calm Calm - N/A   Partly Cloudy
6:52 AM 59.0 °F 46.0 °F 62% 29.99 in 7.0 mi ESE 5.8 mph - N/A   Scattered Clouds
7:52 AM 63.0 °F 50.0 °F 63% 29.99 in 9.0 mi East 4.6 mph - N/A   Scattered Clouds
8:52 AM 66.9 °F 55.0 °F 66% 29.99 in 7.0 mi Calm Calm - N/A   Scattered Clouds
9:52 AM 69.1 °F 55.9 °F 63% 29.99 in 9.0 mi South 5.8 mph - N/A   Partly Cloudy
10:52 AM 70.0 °F 57.0 °F 63% 29.98 in 10.0 mi South 8.1 mph - N/A   Scattered Clouds
11:52 AM 71.1 °F 57.0 °F 61% 29.95 in 9.0 mi South 8.1 mph - N/A   Scattered Clouds
12:52 PM 71.1 °F 57.9 °F 63% 29.91 in 9.0 mi SW 13.8 mph - N/A   Scattered Clouds
1:52 PM 71.1 °F 55.9 °F 59% 29.91 in 9.0 mi West 9.2 mph - N/A   Mostly Cloudy
2:35 PM 73.0 °F 55.9 °F 55% 29.88 in 10.0 mi West 6.9 mph - N/A   Mostly Cloudy
2:52 PM 73.0 °F 57.0 °F 57% 29.88 in 9.0 mi WSW 8.1 mph - N/A   Mostly Cloudy
3:52 PM 73.9 °F 57.0 °F 55% 29.86 in 9.0 mi SW 9.2 mph - N/A   Scattered Clouds
4:52 PM 69.1 °F 57.0 °F 65% 29.85 in 8.0 mi SSW 6.9 mph - N/A   Mostly Cloudy
5:52 PM 69.1 °F 55.9 °F 63% 29.83 in 8.0 mi South 6.9 mph - N/A   Scattered Clouds
6:52 PM 66.9 °F 55.0 °F 66% 29.84 in 8.0 mi West 9.2 mph - N/A   Mostly Cloudy
7:18 PM 66.0 °F 55.0 °F 68% 29.84 in 8.0 mi West 9.2 mph - N/A   Scattered Clouds
7:52 PM 66.0 °F 53.1 °F 63% 29.84 in 8.0 mi West 5.8 mph - N/A   Scattered Clouds
8:52 PM 64.9 °F 54.0 °F 68% 29.84 in 8.0 mi West 3.5 mph - N/A   Scattered Clouds
9:52 PM 66.0 °F 54.0 °F 65% 29.85 in 9.0 mi West 6.9 mph - N/A   Mostly Cloudy
10:52 PM 66.0 °F 53.1 °F 63% 29.85 in 9.0 mi West 4.6 mph - N/A   Mostly Cloudy
11:52 PM 66.0 °F 53.1 °F 63% 29.84 in 9.0 mi SW 4.6 mph - N/A   Mostly Cloudy